Location: Cuguron
(43.0994°N, 0.5363°E)
Time: 08:26:59
(UTC+00:00)

Aureole 1 Rocket - Pass Details

Date: 15 May 2026
Orbit: 372 x 1149 km, 73.9° (Epoch: 6 June)

Event Time Altitude Azimuth Distance (km) Brightness Sun altitude
Rises 22:15:33 0° 341° (NNW) 3,376 8.2 -23.8°
Reaches altitude 10° 22:17:49 10° 344° (NNW) 2,546 7.2 -24.0°
Maximum altitude 22:23:50 70° 69° (ENE) 1,065 4.1 -24.5°
Enters shadow 22:25:36 50° 133° (SE) 1,297 4.2 -24.6°
